KOREASAT 7 (42691 NORAD) Tracking and Keplerian Element Data

This shows tracking and keplerian element data for the satellite.

Feedback or suggestion? Click here.




ElementValue
Catalog42691
NameKOREASAT 7
Epoch Orbit1607
Epoch Day262.03477712
Epoch Year2021
RAAN92.3962
Inclination0.0206
Eccentricity0.0001597
Argument of Perigee101.9714
Mean Anonmoly292.2624
Mean Motion1.00270838
Decay Rate-3.86E-06
L11 42691U 17023A 21262.03477712 -.00000386 00000-0 00000+0 0 9996
L22 42691 0.0206 92.3962 0001597 101.9714 292.2624 1.00270838 16078

Live tracking and technical data element details for KOREASAT 7 (NORAD 42691). KOREASAT 7 can be tracked NOW for your location showing map with azimuth and elevation plus other details from your city location.

Track the satellite on the map from your city or location and see movement details for azimuth, elevation, latitude, longitude, range, height, and movement on the map or in text.







IsCatalogInMostPopularTable: catalog: 42691, numindb: 578
Update: records affected: 1



GetName: 42691 KOREASAT 7

Hit Count: updated at: Sun, 26 Sep 2021 01:24:32 GMT